FW3718 Weather Reports


Display with metric or nautical units.
time (UTC)temp
F
wind
direction
speed
MPH
gust
MPH
rain 1hr
in
rain 24hr
in
rain mn
in
humidity
%
barometer
mb
20260906012806 78 125 0.0 0.0 0.00 0.00 0.00 79 1012.3
20260906012306 78 92 0.0 0.0 0.00 0.00 0.00 80 1012.4
20260906011806 78 90 0.0 1.0 0.00 0.00 0.00 80 1012.5
20260906011305 78 158 0.0 1.0 0.00 0.00 0.00 79 1012.5
20260906010806 78 296 0.0 1.0 0.00 0.00 0.00 80 1012.5
20260906010306 78 135 0.0 1.0 0.00 0.00 0.00 78 1012.4
20260906005306 79 227 0.0 1.0 0.00 0.00 0.00 77 1012.4
20260906004306 80 190 1.0 2.0 0.00 0.00 0.00 77 1012.3
20260906003305 80 34 1.0 2.0 0.00 0.00 0.00 75 1012.3
20260906002806 81 298 2.0 2.0 0.00 0.00 0.00 73 1012.5
20260906002306 81 129 1.0 1.0 0.00 0.00 0.00 74 1012.4
20260906001805 81 186 1.0 1.0 0.00 0.00 0.00 75 1012.5
20260906001306 81 310 0.0 1.0 0.00 0.00 0.00 76 1012.5
20260906000806 81 307 1.0 2.0 0.00 0.00 0.00 74 1012.6
20260906000306 81 300 1.0 2.0 0.00 0.00 0.00 74 1013.0
20260905235306 82 325 2.0 2.0 0.00 0.00 0.00 73 1013.3
20260905234805 82 125 1.0 2.0 0.00 0.00 0.00 73 1013.4
20260905233806 84 299 2.0 6.0 0.00 0.00 0.00 69 1013.4
20260905233306 84 115 1.0 2.0 0.00 0.00 0.00 70 1013.4
20260905232805 85 26 1.0 2.0 0.00 0.00 0.00 69 1013.3
20260905231805 85 102 1.0 2.0 0.00 0.00 0.00 66 1013.1
20260905231313 86 270 1.0 2.0 0.00 0.00 0.03 65 1013.1